Tracking 35274 objects as of 11-Sep-2026
HD Live streaming from Space Station
objects crossing your sky now

COSMOS 1408 DEB


COSMOS 1408 DEB is no longer on orbit


NORAD ID: 51581
Int'l Code: 1982-092BNH
Launch date: September 16, 1982
Source: Commonwealth of Independent States (former USSR) (CIS)
Launch site: PLESETSK MISSILE AND SPACE COMPLEX (PKMTR)
Decay date: 2022-06-20

Note: This is SATELLITE DEBRIS
Your satellite tracking list
Your tracking list is empty




NASA's NSSDC Master Catalog

Two Line Element Set (TLE):
1 51581U 82092BNJ 22168.30580898  .02218631  27606-2  86055-2 0  9993
2 51581  82.5313 269.3593 0023827 313.1181  46.8097 15.87379306 23087
Source of the keplerian elements: AFSPC